Location: Plainartige
(45.6866°N, 1.7993°E)
Time: 12:12:08
(UTC+00:00)

Gurwin Techsat 1B - Pass Details

Date: 08 July 2022
Orbit: 812 x 813 km, 98.8° (Epoch: 13 August)

Event Time Altitude Azimuth Distance (km) Brightness Sun altitude
Rises 01:00:09 0° 32° (NNE) 3,345 13.2 -20.4°
Reaches altitude 10° 01:03:49 10° 58° (ENE) 2,406 11.7 -20.2°
Maximum altitude 01:06:25 14° 88° (E) 2,154 11.0 -20.1°
Drops below altitude 10° 01:09:00 10° 118° (ESE) 2,398 11.0 -19.9°
Enters shadow 01:10:40 - 132° (SE) 2,764 11.1 -19.8°
